ELY251 LLBG-LLER

Flight info

Callsign ELY251
Flight time 0h 39m
Altitude 24000
Route TOMAL4E TOMAL J10 NURIT NURIT1B
Aircraft B738/M-SDE2E3FGHIRWXY/LB1

Departure

Time 2026-04-24 12:54
Airport Ben Gurion International Airport (LLBG)

Arrival

Time 2026-04-24 13:33
Airport Ramon International Airport (LLER)
Time Latitude Longitude Altitude Speed Heading
2026-04-24 12:17 32.00418 34.87614 119 ft 0 kts 238°
2026-04-24 12:43 32.00423 34.87624 115 ft 2 kts 239°
2026-04-24 12:43 32.00430 34.87637 117 ft 1 kts 240°
2026-04-24 12:43 32.00436 34.87650 116 ft 1 kts 243°
2026-04-24 12:44 32.00441 34.87663 118 ft 1 kts 248°
2026-04-24 12:44 32.00446 34.87676 119 ft 2 kts 255°
2026-04-24 12:44 32.00448 34.87690 118 ft 1 kts 272°
2026-04-24 12:44 32.00446 34.87704 120 ft 2 kts 316°
2026-04-24 12:45 32.00438 34.87711 118 ft 1 kts 341°
2026-04-24 12:45 32.00436 34.87712 116 ft 0 kts 343°
2026-04-24 12:45 32.00437 34.87712 115 ft 0 kts 343°
2026-04-24 12:48 32.00455 34.87706 115 ft 8 kts 345°
2026-04-24 12:48 32.00541 34.87685 118 ft 15 kts 356°
2026-04-24 12:48 32.00627 34.87732 118 ft 11 kts 45°
2026-04-24 12:49 32.00629 34.87780 119 ft 6 kts 120°
2026-04-24 12:49 32.00590 34.87863 116 ft 15 kts 110°
2026-04-24 12:49 32.00613 34.87936 118 ft 0 kts 32°
2026-04-24 12:50 32.00630 34.87949 116 ft 10 kts 31°
2026-04-24 12:50 32.00738 34.88024 119 ft 25 kts 32°
2026-04-24 12:50 32.00926 34.88164 118 ft 38 kts 32°
2026-04-24 12:50 32.01163 34.88335 118 ft 39 kts 32°
2026-04-24 12:51 32.01362 34.88523 116 ft 35 kts 49°
2026-04-24 12:51 32.01478 34.88762 115 ft 33 kts 72°
2026-04-24 12:51 32.01523 34.89019 118 ft 31 kts 79°
2026-04-24 12:51 32.01589 34.89160 118 ft 15 kts 11°
2026-04-24 12:52 32.01648 34.89150 115 ft 8 kts 350°
2026-04-24 12:52 32.01655 34.89149 116 ft 0 kts 347°
2026-04-24 12:52 32.01674 34.89145 114 ft 13 kts 349°
2026-04-24 12:53 32.01748 34.89106 116 ft 9 kts 311°
2026-04-24 12:53 32.01743 34.89035 116 ft 9 kts 239°
2026-04-24 12:53 32.01723 34.88942 120 ft 28 kts 259°
2026-04-24 12:53 32.01637 34.88382 120 ft 109 kts 259°
2026-04-24 12:54 32.01463 34.87231 130 ft 174 kts 263°
2026-04-24 12:54 32.01227 34.85847 325 ft 163 kts 265°
2026-04-24 12:54 32.01049 34.84478 601 ft 179 kts 269°
2026-04-24 12:54 32.00863 34.82998 1172 ft 183 kts 260°
2026-04-24 12:55 32.00209 34.81697 1703 ft 198 kts 212°
2026-04-24 12:55 31.98825 34.81336 2195 ft 220 kts 172°
2026-04-24 12:55 31.97382 34.82010 2649 ft 230 kts 137°
2026-04-24 12:55 31.96542 34.83588 3327 ft 231 kts 102°
2026-04-24 12:56 31.96249 34.85410 4138 ft 231 kts 96°
2026-04-24 12:56 31.96001 34.87295 4824 ft 235 kts 98°
2026-04-24 12:56 31.95784 34.88804 5411 ft 239 kts 99°
2026-04-24 12:56 31.95489 34.90718 6119 ft 243 kts 100°
2026-04-24 12:57 31.95168 34.92689 6754 ft 248 kts 101°
2026-04-24 12:57 31.94833 34.94698 7371 ft 253 kts 101°
2026-04-24 12:57 31.94352 34.96710 7977 ft 261 kts 114°
2026-04-24 12:57 31.93571 34.98750 8191 ft 285 kts 116°
2026-04-24 12:58 31.92703 35.00887 8769 ft 291 kts 117°
2026-04-24 12:58 31.91831 35.03069 8994 ft 301 kts 117°
2026-04-24 12:58 31.90936 35.05330 8982 ft 305 kts 116°
2026-04-24 12:58 31.90056 35.07583 8987 ft 301 kts 116°
2026-04-24 12:59 31.89192 35.09812 8987 ft 297 kts 116°
2026-04-24 12:59 31.88339 35.12015 9000 ft 295 kts 116°
2026-04-24 12:59 31.87511 35.14134 8979 ft 294 kts 117°
2026-04-24 12:59 31.86625 35.16374 9001 ft 293 kts 116°
2026-04-24 13:00 31.85776 35.18572 9001 ft 298 kts 116°
2026-04-24 13:00 31.84851 35.20958 8998 ft 299 kts 116°
2026-04-24 13:00 31.83907 35.23385 8989 ft 297 kts 116°
2026-04-24 13:00 31.83048 35.25594 8999 ft 296 kts 116°
2026-04-24 13:01 31.82191 35.27801 8985 ft 297 kts 116°
2026-04-24 13:01 31.81332 35.30006 8979 ft 295 kts 116°
2026-04-24 13:01 31.80482 35.32189 8986 ft 293 kts 116°
2026-04-24 13:01 31.79630 35.34367 8982 ft 292 kts 116°
2026-04-24 13:02 31.78781 35.36537 8986 ft 292 kts 116°
2026-04-24 13:02 31.77937 35.38703 8988 ft 292 kts 117°
2026-04-24 13:02 31.77087 35.40874 8985 ft 293 kts 116°
2026-04-24 13:02 31.76521 35.42326 8990 ft 294 kts 117°
2026-04-24 13:03 31.75661 35.44514 8982 ft 295 kts 118°
2026-04-24 13:03 31.74472 35.46419 8985 ft 286 kts 143°
2026-04-24 13:03 31.72742 35.47498 8988 ft 283 kts 168°
2026-04-24 13:03 31.70787 35.47705 8958 ft 284 kts 188°
2026-04-24 13:04 31.68865 35.47274 8991 ft 280 kts 194°
2026-04-24 13:04 31.66961 35.46783 8988 ft 281 kts 193°
2026-04-24 13:04 31.65049 35.46303 8982 ft 281 kts 193°
2026-04-24 13:04 31.63135 35.45833 8977 ft 281 kts 193°
2026-04-24 13:05 31.61214 35.45375 8994 ft 283 kts 192°
2026-04-24 13:05 31.59273 35.44941 9394 ft 285 kts 192°
2026-04-24 13:05 31.57343 35.44517 10135 ft 285 kts 192°
2026-04-24 13:05 31.55361 35.44082 10648 ft 294 kts 192°
2026-04-24 13:06 31.53328 35.43634 11249 ft 299 kts 193°
2026-04-24 13:06 31.51276 35.43183 11958 ft 300 kts 193°
2026-04-24 13:06 31.49213 35.42728 12640 ft 303 kts 193°
2026-04-24 13:06 31.47131 35.42269 13322 ft 305 kts 193°
2026-04-24 13:07 31.45032 35.41806 13967 ft 308 kts 193°
2026-04-24 13:07 31.42919 35.41340 14581 ft 310 kts 194°
2026-04-24 13:07 31.40795 35.40872 15190 ft 312 kts 194°
2026-04-24 13:07 31.38652 35.40400 15811 ft 315 kts 194°
2026-04-24 13:08 31.36491 35.39924 16424 ft 317 kts 194°
2026-04-24 13:08 31.34308 35.39444 16922 ft 320 kts 194°
2026-04-24 13:08 31.32074 35.39022 16963 ft 334 kts 190°
2026-04-24 13:09 31.27208 35.38500 16991 ft 367 kts 187°
2026-04-24 13:09 31.24609 35.38250 16977 ft 381 kts 187°
2026-04-24 13:09 31.21923 35.37978 16977 ft 394 kts 188°
2026-04-24 13:09 31.19190 35.37689 16972 ft 405 kts 188°
2026-04-24 13:10 31.16352 35.37384 16969 ft 414 kts 187°
2026-04-24 13:10 31.13461 35.37085 16957 ft 417 kts 187°
2026-04-24 13:10 31.10578 35.36798 16951 ft 414 kts 187°
2026-04-24 13:10 31.07702 35.36511 16950 ft 413 kts 187°
2026-04-24 13:11 31.04835 35.36218 16953 ft 413 kts 187°
2026-04-24 13:11 31.01973 35.35912 16964 ft 413 kts 188°
2026-04-24 13:11 30.99106 35.35603 16955 ft 413 kts 188°
2026-04-24 13:11 30.96247 35.35279 16954 ft 413 kts 190°
2026-04-24 13:12 30.93440 35.34601 16949 ft 411 kts 198°
2026-04-24 13:12 30.90781 35.33423 16963 ft 409 kts 205°
2026-04-24 13:12 30.88171 35.32101 16953 ft 409 kts 205°
2026-04-24 13:12 30.85556 35.30783 16950 ft 409 kts 205°
2026-04-24 13:13 30.82942 35.29476 16950 ft 409 kts 205°
2026-04-24 13:13 30.80322 35.28177 16945 ft 410 kts 204°
2026-04-24 13:13 30.77697 35.26883 16951 ft 410 kts 204°
2026-04-24 13:13 30.75064 35.25589 16946 ft 410 kts 204°
2026-04-24 13:14 30.72471 35.24317 16952 ft 410 kts 204°
2026-04-24 13:14 30.69841 35.23027 16941 ft 410 kts 204°
2026-04-24 13:14 30.67213 35.21739 16942 ft 410 kts 204°
2026-04-24 13:14 30.64587 35.20453 16942 ft 409 kts 204°
2026-04-24 13:15 30.61966 35.19169 16934 ft 409 kts 204°
2026-04-24 13:15 30.59339 35.17883 16937 ft 408 kts 204°
2026-04-24 13:15 30.56746 35.16643 16930 ft 397 kts 201°
2026-04-24 13:15 30.54100 35.15770 16935 ft 395 kts 192°
2026-04-24 13:16 30.51382 35.15262 16946 ft 396 kts 191°
2026-04-24 13:16 30.48658 35.14774 16920 ft 396 kts 191°
2026-04-24 13:16 30.45933 35.14277 16512 ft 394 kts 191°
2026-04-24 13:16 30.43242 35.13775 16004 ft 390 kts 191°
2026-04-24 13:17 30.40580 35.13270 15475 ft 386 kts 191°
2026-04-24 13:17 30.37935 35.12764 14945 ft 383 kts 191°
2026-04-24 13:17 30.35316 35.12263 14410 ft 380 kts 191°
2026-04-24 13:17 30.32803 35.11783 13874 ft 379 kts 191°
2026-04-24 13:18 30.30135 35.11266 13204 ft 380 kts 191°
2026-04-24 13:18 30.27535 35.10760 12650 ft 377 kts 191°
2026-04-24 13:18 30.24960 35.10259 12090 ft 374 kts 191°
2026-04-24 13:18 30.22407 35.09763 11581 ft 371 kts 190°
2026-04-24 13:19 30.19874 35.09255 11217 ft 363 kts 191°
2026-04-24 13:19 30.17429 35.08754 11051 ft 351 kts 191°
2026-04-24 13:19 30.15062 35.08268 10901 ft 340 kts 191°
2026-04-24 13:19 30.12887 35.07822 10767 ft 330 kts 191°
2026-04-24 13:20 30.10662 35.07367 10627 ft 320 kts 191°
2026-04-24 13:20 30.08496 35.06926 10490 ft 310 kts 191°
2026-04-24 13:20 30.06431 35.06507 10362 ft 301 kts 190°
2026-04-24 13:20 30.04399 35.06104 10233 ft 292 kts 190°
2026-04-24 13:21 30.02425 35.05716 10130 ft 284 kts 190°
2026-04-24 13:21 30.00495 35.05339 9981 ft 277 kts 190°
2026-04-24 13:21 29.98624 35.04971 9831 ft 270 kts 190°
2026-04-24 13:21 29.96767 35.04606 9537 ft 270 kts 190°
2026-04-24 13:22 29.94919 35.04243 9247 ft 269 kts 191°
2026-04-24 13:22 29.93077 35.03881 9037 ft 265 kts 190°
2026-04-24 13:22 29.91289 35.03529 8909 ft 257 kts 190°
2026-04-24 13:22 29.89553 35.03190 8791 ft 250 kts 190°
2026-04-24 13:23 29.87829 35.02854 8537 ft 252 kts 190°
2026-04-24 13:23 29.86105 35.02524 8279 ft 249 kts 190°
2026-04-24 13:23 29.84404 35.02198 8009 ft 247 kts 190°
2026-04-24 13:23 29.82713 35.01870 7760 ft 246 kts 191°
2026-04-24 13:24 29.81102 35.01328 7474 ft 244 kts 202°
2026-04-24 13:24 29.79560 35.00537 7235 ft 243 kts 204°
2026-04-24 13:24 29.78022 34.99731 7003 ft 241 kts 204°
2026-04-24 13:24 29.76479 34.98940 6738 ft 244 kts 204°
2026-04-24 13:25 29.74911 34.98149 6428 ft 247 kts 204°
2026-04-24 13:25 29.73334 34.97377 6186 ft 245 kts 203°
2026-04-24 13:25 29.71765 34.96594 5881 ft 247 kts 204°
2026-04-24 13:25 29.70141 34.95927 5630 ft 247 kts 198°
2026-04-24 13:26 29.68501 34.95373 5346 ft 251 kts 197°
2026-04-24 13:26 29.66810 34.94813 5077 ft 255 kts 197°
2026-04-24 13:26 29.65085 34.94236 4831 ft 259 kts 197°
2026-04-24 13:26 29.63339 34.93643 4570 ft 265 kts 197°
2026-04-24 13:27 29.61556 34.93031 4249 ft 268 kts 197°
2026-04-24 13:27 29.59764 34.92412 3958 ft 270 kts 197°
2026-04-24 13:27 29.57953 34.91787 3673 ft 272 kts 197°
2026-04-24 13:27 29.56131 34.91159 3382 ft 274 kts 198°
2026-04-24 13:28 29.54307 34.90591 3219 ft 268 kts 187°
2026-04-24 13:28 29.52562 34.90954 3238 ft 250 kts 146°
2026-04-24 13:28 29.51463 34.92402 3223 ft 241 kts 106°
2026-04-24 13:28 29.51433 34.94236 3221 ft 233 kts 65°
2026-04-24 13:29 29.52426 34.95606 3226 ft 224 kts 27°
2026-04-24 13:29 29.53874 34.96256 3122 ft 228 kts 12°
2026-04-24 13:29 29.55450 34.96609 2971 ft 234 kts 10°
2026-04-24 13:29 29.57026 34.97002 2799 ft 225 kts 13°
2026-04-24 13:30 29.58495 34.97415 2675 ft 211 kts 12°
2026-04-24 13:30 29.59895 34.97809 2424 ft 203 kts 11°
2026-04-24 13:30 29.61230 34.98182 2161 ft 193 kts 12°
2026-04-24 13:30 29.62497 34.98537 1883 ft 181 kts 12°
2026-04-24 13:31 29.63706 34.98876 1665 ft 177 kts 12°
2026-04-24 13:31 29.64887 34.99207 1433 ft 173 kts 14°
2026-04-24 13:31 29.66053 34.99534 1239 ft 174 kts 12°
2026-04-24 13:31 29.67237 34.99867 954 ft 172 kts 13°
2026-04-24 13:32 29.68372 35.00185 732 ft 162 kts 14°
2026-04-24 13:32 29.69415 35.00480 533 ft 145 kts 14°
2026-04-24 13:32 29.70330 35.00748 481 ft 137 kts 12°
2026-04-24 13:32 29.71259 35.00997 322 ft 138 kts 14°
2026-04-24 13:33 29.72174 35.01255 303 ft 134 kts 15°
2026-04-24 13:33 29.72962 35.01479 294 ft 87 kts 13°
2026-04-24 13:33 29.73410 35.01602 302 ft 56 kts 13°
2026-04-24 13:33 29.73756 35.01699 297 ft 45 kts 13°
2026-04-24 13:34 29.74033 35.01774 298 ft 37 kts 13°
2026-04-24 13:34 29.74249 35.01826 301 ft 24 kts 352°
2026-04-24 13:34 29.74303 35.01755 299 ft 1 kts 284°
2026-04-24 13:34 29.74304 35.01748 297 ft 1 kts 284°
2026-04-24 13:35 29.74305 35.01747 297 ft 0 kts 284°